Terminal Aerodrome Forecast
Issued by NWS Jacksonville, FL

Home | Current Version | Previous Version | Text Only | Print | Product List | Glossary On
Versions: 1 2 3 4 5 6 7 8 9 10 11 12 13 14 15 16 17 18 19 20
000
FTUS42 KJAX 222341
TAFGNV
TAF
KGNV 222341Z 2300/2324 07008KT 5SM -SHRA BR SCT015 BKN050 OVC080
     FM230200 03006KT P6SM VCSH SCT008 BKN015 OVC025
     FM230800 02005KT P6SM BKN008 OVC015
     FM231300 04010G15KT P6SM SCT008 BKN020 OVC030
     FM231500 04013G25KT P6SM SCT020 BKN030 OVC150=

USA.gov is the U.S. government's official web portal to all federal, state and local government web resources and services.